Simultaneous Nadir Overpasses (SNOs) Predictions

Prediction of SNOs between GOES-14 and NOAA-20 Satellite Orbit:

Table of predicted SNOs for the next 14.0 days since TLE Epoch: 9/4/2020
Index Date Time (GOES-14) GOES-14 Lat,Lon NOAA-20 Lat,Lon Distance(km) Time Diff (sec)
1 09/05/2020 20:22:58 -0.39,-104.55 -0.29,-104.20 39.85 80
2 09/08/2020 08:25:59 0.38,-104.42 0.48,-104.93 57.42 80
3 09/09/2020 08:04:34 0.39,-104.41 -0.53,-100.40 457.70 80
4 09/10/2020 20:26:29 -0.37,-104.51 -0.67,-105.70 135.72 80
5 09/11/2020 20:10:24 -0.38,-104.51 0.40,-101.17 381.10 80
6 09/13/2020 08:32:11 0.36,-104.41 0.79,-106.44 230.72 80
7 09/14/2020 08:10:45 0.36,-104.39 -0.21,-101.90 284.11 80
8 09/15/2020 20:32:40 -0.35,-104.46 -0.97,-107.20 313.03 80
9 09/16/2020 20:16:35 -0.35,-104.46 0.03,-102.67 203.89 80
10 09/18/2020 08:38:22 0.33,-104.39 1.10,-107.94 404.31 80
